Weather in Ulakhan-Kyuyol

Russia / Sakha (Yakutia) Republic     67°32′27″N   136°30′29″E
temp.,
°C
wind,
m/s
gust,
m/s
humid.,
%
clouds,
%
prec.,
mm/h
press.,
hPa
HPBL,
m
8 march, mon
mon801:00−27se2296100 0.0 101231
04:00−30se229397 0.1 100921
07:00−32se228484 0.0 100725
10:00−28ese248092 0.0 1005210
13:00−24sse3576100 0.0 1002403
16:00−22sse2480100 0.0 1001445
19:00−24s1298100 0.1 100221
22:00−25sse1199100 0.3 100321
9 march, tue
tue901:00−25se1199100 0.2 100421
04:00−25se1198100 0.3 100521
07:00−25sse119899 0.1 100625
10:00−23sse1294100 0.1 1007169
13:00−21se2287100 0.0 1007427
16:00−20se2386100 0.1 1006441
19:00−25se238755 0.0 100720
22:00−25se228675 0.0 100624
10 march, wed
wed1001:00−23se2385100 0.0 100540
04:00−23se3485100 0.0 100552
07:00−23sse3484100 0.0 100456
10:00−20sse4880100 0.0 1003306
13:00−18sse5978100 0.0 1002353
16:00−17sse61177100 0.0 1000385
19:00−17sse51082100 0.0 1000241
22:00−16sse51080100 0.0 1000252
11 march, thu
thu1101:00−17sse4984100 0.0 1000186
04:00−17sse4684100 0.0 1001130
07:00−18sse3482100 0.0 100256
10:00−17s3781100 0.0 1002288
13:00−15ssw6985100 0.1 10031003
16:00−14sw6973100 0.2 1004982
19:00−17ssw3877100 0.0 1007181
22:00−19s3389100 0.0 100861
12 march, fri
fri1201:00−21sse2390100 0.0 100829
04:00−23s3484100 0.0 100974
07:00−25se457996 0.0 101057
10:00−23sse487748 0.0 1009245
13:00−19sse697620 0.0 1007407
16:00−18sse6117360 0.0 1004519
19:00−19sse41177100 0.0 1001326
22:00−19se41177100 0.0 998341